BEIDOU-2 G8

Last updated on Wed Sep 17 2025 00:02:50 GMT+0000 (Coordinated Universal Time)

1 44231U 19027A 25259.54934022 -.00000266 00000+0 00000+0 0 9998 2 44231 1.4368 74.3432 0006697 260.4890 3.2157 1.00270488 23337
UTC large
Height (km)
Speed (km/s)
/
Latitude / Longitude
Inclination (degrees)
Orbital Period (minutes)
Azimuth
Elevation
Range (km)
Doppler Factor

Next 0 passes for location: London (51.5072 / 0.1276)

Sorry there are no passes over London.